UAL496 KLAX-KSLC

Flight info

Callsign UAL496
Flight time N/A
Altitude 39000
Route ORCKA5 LAS Q70 BLIPP Q842 WINEN MLF PITTT2
Aircraft B77L/H-SDE1E2E3FGHIJ2J3J4J5M1RWXY/LB1D1

Departure

Time 2026-05-08 05:25
Airport Los Angeles International Airport (KLAX)

Arrival

Time N/A
Airport Salt Lake City International Airport (KSLC)
Time Latitude Longitude Altitude Speed Heading
2026-05-08 04:38 33.94021 -118.41074 124 ft 0 kts 83°
2026-05-08 04:39 33.94177 -118.41098 126 ft 0 kts 83°
2026-05-08 05:08 33.94175 -118.41114 124 ft 4 kts 83°
2026-05-08 05:08 33.94172 -118.41146 124 ft 4 kts 83°
2026-05-08 05:09 33.94170 -118.41172 124 ft 4 kts 77°
2026-05-08 05:09 33.94158 -118.41197 124 ft 4 kts 23°
2026-05-08 05:09 33.94135 -118.41201 125 ft 3 kts 353°
2026-05-08 05:09 33.94109 -118.41197 125 ft 2 kts 353°
2026-05-08 05:10 33.94107 -118.41196 125 ft 0 kts 353°
2026-05-08 05:14 33.94163 -118.41205 124 ft 9 kts 353°
2026-05-08 05:14 33.94231 -118.41215 127 ft 13 kts 353°
2026-05-08 05:14 33.94320 -118.41228 127 ft 13 kts 353°
2026-05-08 05:15 33.94409 -118.41241 127 ft 13 kts 352°
2026-05-08 05:15 33.94497 -118.41256 127 ft 13 kts 352°
2026-05-08 05:15 33.94586 -118.41270 126 ft 13 kts 353°
2026-05-08 05:15 33.94625 -118.41275 127 ft 5 kts 353°
2026-05-08 05:16 33.94705 -118.41287 127 ft 12 kts 353°
2026-05-08 05:16 33.94783 -118.41278 124 ft 10 kts 40°
2026-05-08 05:16 33.94802 -118.41206 126 ft 7 kts 82°
2026-05-08 05:16 33.94805 -118.41176 125 ft 0 kts 83°
2026-05-08 05:17 33.94805 -118.41171 125 ft 6 kts 83°
2026-05-08 05:17 33.94814 -118.41090 128 ft 10 kts 82°
2026-05-08 05:18 33.94823 -118.41015 128 ft 8 kts 82°
2026-05-08 05:18 33.94830 -118.40949 126 ft 7 kts 83°
2026-05-08 05:18 33.94837 -118.40876 130 ft 11 kts 84°
2026-05-08 05:18 33.94845 -118.40791 128 ft 10 kts 84°
2026-05-08 05:19 33.94846 -118.40771 126 ft 4 kts 84°
2026-05-08 05:19 33.94857 -118.40670 130 ft 14 kts 83°
2026-05-08 05:19 33.94869 -118.40554 127 ft 14 kts 83°
2026-05-08 05:19 33.94882 -118.40438 127 ft 14 kts 82°
2026-05-08 05:20 33.94893 -118.40322 128 ft 14 kts 83°
2026-05-08 05:20 33.94905 -118.40206 125 ft 14 kts 82°
2026-05-08 05:20 33.94917 -118.40091 126 ft 14 kts 83°
2026-05-08 05:20 33.94928 -118.39982 130 ft 11 kts 81°
2026-05-08 05:21 33.94943 -118.39939 127 ft 1 kts 51°
2026-05-08 05:21 33.94973 -118.39918 125 ft 9 kts 15°
2026-05-08 05:21 33.95030 -118.39940 127 ft 9 kts 311°
2026-05-08 05:21 33.95037 -118.40005 126 ft 7 kts 262°
2026-05-08 05:22 33.95037 -118.40008 126 ft 0 kts 262°
2026-05-08 05:24 33.95028 -118.40087 130 ft 39 kts 263°
2026-05-08 05:24 33.94958 -118.40766 127 ft 119 kts 263°
2026-05-08 05:25 33.94832 -118.42023 297 ft 172 kts 263°
2026-05-08 05:25 33.94693 -118.43372 1507 ft 157 kts 264°
2026-05-08 05:25 33.94585 -118.44679 2275 ft 157 kts 266°
2026-05-08 05:25 33.94484 -118.45972 2813 ft 158 kts 264°
2026-05-08 05:26 33.94364 -118.47356 3093 ft 177 kts 266°
2026-05-08 05:26 33.94242 -118.48904 3390 ft 194 kts 264°
2026-05-08 05:26 33.94074 -118.50628 3542 ft 220 kts 263°
2026-05-08 05:26 33.93860 -118.52501 4002 ft 232 kts 262°
2026-05-08 05:27 33.93616 -118.54460 4554 ft 241 kts 263°
2026-05-08 05:27 33.93386 -118.56492 5159 ft 249 kts 262°
2026-05-08 05:27 33.93141 -118.58578 5823 ft 254 kts 263°
2026-05-08 05:27 33.92906 -118.60662 6747 ft 248 kts 263°
2026-05-08 05:28 33.92709 -118.62717 7482 ft 246 kts 269°
2026-05-08 05:28 33.93129 -118.64729 8006 ft 255 kts 301°
2026-05-08 05:28 33.94050 -118.66508 8678 ft 248 kts 286°
2026-05-08 05:28 33.94066 -118.68554 9259 ft 252 kts 250°
2026-05-08 05:29 33.92975 -118.70204 9843 ft 263 kts 216°
2026-05-08 05:29 33.91194 -118.70863 10418 ft 276 kts 183°
2026-05-08 05:29 33.89340 -118.70280 11293 ft 282 kts 152°
2026-05-08 05:29 33.87916 -118.68602 11947 ft 298 kts 121°
2026-05-08 05:30 33.87266 -118.66189 12478 ft 313 kts 97°
2026-05-08 05:30 33.87380 -118.63524 12961 ft 329 kts 74°
2026-05-08 05:30 33.88376 -118.60995 13272 ft 342 kts 52°
2026-05-08 05:30 33.89885 -118.58707 13625 ft 359 kts 47°
2026-05-08 05:31 33.91575 -118.56374 14014 ft 379 kts 46°
2026-05-08 05:31 33.93370 -118.53988 14663 ft 390 kts 46°